Regional Weather Roundup
Issued by NWS

Home | Current Version | Previous Version | Graphics & Text | Print | Product List | Glossary On
Versions: 1 2 3 4 5 6 7 8 9 10 11 12 13 14 15 16 17 18 19 20 21 22 23 24 25 26 27 28 29 30 31 32 33 34 35 36 37 38 39 40 41 42 43 44 45 46 47 48 49 50
000
ASUS45 KTFX 012304
RWRMT
MONTANA HOURLY WEATHER ROUNDUP
NATIONAL WEATHER SERVICE GREAT FALLS MT
504 PM MDT FRI AUG 1 2014

NOTE: "FAIR" INDICATES FEW OR NO CLOUDS BELOW 12000 FEET WITH NO
SIGNIFICANT WEATHER AND/OR OBSTRUCTIONS TO VISIBILITY.

* THESE STATIONS ARE NOT UNDER NWS QUALITY CONTROL. THEY DO NOT
   REPORT WEATHER SUCH AS PRECIPITATION OR FOG.

MTZ001>007-043-020000-
WEST OF THE DIVIDE
CITY           SKY/WX    TMP DP  RH WIND       PRES   REMARKS
KALISPELL      PTCLDY    93  41  16 CALM      30.03F
MISSOULA       MOCLDY    91  39  16 S21G29    30.02S
BUTTE          MOCLDY    84  34  17 SE12G20   30.21F
MULLAN PASS    MOCLDY    73  43  34 N7        30.26F
* ESSEX        N/A      N/A N/A N/A N/A        N/A
* LINCOLN      N/A       89  44  21 NE8G18     N/A
* LOOKOUT PASS N/A       82  42  24 N5         N/A
* POLSON       N/A       91  46  21 NW3        N/A
* RONAN APT    PTCLDY    91  48  23 N11        N/A
* SEELEY LAKE  N/A       92  28  10 E6G13      N/A
* THOMP F APT  MOCLDY    70  41  35 NW5G12     N/A
$$

MTZ008-052>055-020000-
SOUTHWEST MONTANA
CITY           SKY/WX    TMP DP  RH WIND       PRES   REMARKS
BOZEMAN        MOCLDY    86  39  19 SE17G23   30.14S
DILLON         MOCLDY    81  37  21 S14G23    30.18F
W YELLOWSTONE  CLOUDY    59  48  67 SE13G26   30.35R
* THREE FORKS  PTCLDY    90  52  27 N/A        N/A
* BOULDER HILL N/A       81  39  22 NE9G16     N/A
* MONIDA PASS  N/A       72  40  31 E5G15      N/A
* RAYNOLDS PAS N/A       68  36  31 E14G20     N/A
* WHITEHALL    N/A       92  38  15 SE4G12     N/A
* WISE RIVER   N/A       81  35  19 W6G15      N/A
$$

MTZ009>010-012-014-046-048-049-054-020000-
EAST SLOPES AND CENTRAL MONTANA
CITY           SKY/WX    TMP DP  RH WIND       PRES   REMARKS
CUT BANK       PTCLDY    86  52  31 SE7       30.16F
GREAT FALLS    PTCLDY    90  37  15 VRB5      30.12F
HELENA         PTCLDY    91  39  16 N6        30.09F
MALMSTROM AFB  PTCLDY    90  37  15 VRB2      30.12F
* CONRAD       MOCLDY    84  57  40 N/A        N/A   HI  83
* DEARBORN     N/A       90  39  17 NE8G17     N/A
* EAST GLACIER N/A       74  56  54 SE4        N/A
* MONARCH      N/A       85  43  23 SE9G14     N/A
* PENDROY      N/A       79  53  41 NW7        N/A
* SAINT MARY   N/A       83  55  38 NE5G10     N/A
* SWEET GRASS  N/A       82  53  37 NE9G15     N/A
$$

MTZ011-013-016-021-035-040-045-047-050-051-020000-
NORTH CENTRAL MONTANA
CITY           SKY/WX    TMP DP  RH WIND       PRES   REMARKS
HAVRE          PTCLDY    91  46  21 N10       30.08R
LEWISTOWN      PTCLDY    90  37  15 VRB3      30.16F
* CHESTER      N/A       86  46  25 NE4G9      N/A
* DENTON       N/A       91  47  22 NW4G12     N/A
* GEYSER       N/A       89  47  23 N8         N/A
* JUDITH GAP   N/A       88  47  24 NW13G19    N/A
* LOMA         N/A       92  45  20 W6G15      N/A
$$

MTZ017>020-022>027-061-062-020000-
NORTHEAST MONTANA
CITY           SKY/WX    TMP DP  RH WIND       PRES   REMARKS
GLASGOW        RAIN      73  61  66 N12G30    30.06R VSB 3
GLENDIVE       FAIR      88  52  29 NE10G18   30.07F
JORDAN         CLEAR     91  39  16 N10       30.07S
SIDNEY         CLEAR     88  52  29 E6        30.08S
WOLF POINT     CLEAR     91  48  23 SE7       30.04F
* BEAVER HILL  N/A       85  56  37 NE13G22    N/A
* CIRCLE       N/A       89  54  30 NE1        N/A
* LINDSAY DVD  N/A       87  52  30 NE6G17     N/A
* NAVAJO       N/A       83  53  36 NE4        N/A
$$

MTZ028>042-056>058-020000-
SOUTHCENTRAL AND SOUTHEAST MONTANA
CITY           SKY/WX    TMP DP  RH WIND       PRES   REMARKS
BAKER          FAIR      91  48  23 E15       30.06F
BILLINGS       PTCLDY    91  36  14 E14       30.11F
LIVINGSTON     PTCLDY    90  34  14 NE10      30.15S
MILES CITY     PTCLDY    93  36  13 N12G22    30.03F
* LAUREL APT   PTCLDY    91  37  15 NE8        N/A
* ROUNDUP APT  CLEAR     91  37  15 N11G17     N/A
* ALZADA       N/A       89  39  17 NW9G14     N/A
* HYSHAM       N/A       92  48  22 N7G12      N/A
* LAME DEER    N/A       86  39  19 VRB10      N/A
* REED POINT   N/A       94  47  20 NE6G16     N/A
* ROSCOE HILL  N/A       83  40  22 E8         N/A
$$

REGIONAL REPORTS...DAKOTAS
CITY           SKY/WX    TMP DP  RH WIND       PRES   REMARKS
WILLISTON      CLEAR     84  52  33 CALM      30.08F
DICKINSON      PTCLDY    84  59  43 E13       30.06S HI  84
CROSBY         CLEAR     81  57  44 SE6       30.09S HI  81
TIOGA          CLEAR     79  55  44 SE7       30.13F
WATFORD CITY   CLEAR     82  54  38 E5        30.07F
BISMARCK       MOCLDY    88  57  35 E12       30.04S
GRAND FORKS    PTCLDY    82  59  46 NE6       30.06S HI  82
FARGO          PTCLDY    82  55  40 N10       30.06S HI  81
BUFFALO SD     CLEAR     90  50  25 N9        29.99S
RAPID CITY     CLOUDY    81  48  32 W6        30.09R
$$

REGIONAL REPORTS...WYOMING/IDAHO/WASHINGTON
CITY           SKY/WX    TMP DP  RH WIND       PRES   REMARKS
GILLETTE       MOCLDY    84  39  20 CALM      30.15S
SHERIDAN       LGT RAIN  84  43  24 SW14      30.14S
CODY           TSTM      73  48  41 SW22G37   30.25R
YELLOWSTONE LA CLOUDY    61  41  48 CALM      30.49R
SALMON         TSTM      84  41  22 S7        30.06R
MULLAN PASS    MOCLDY    73  43  34 N7        30.26S
SPOKANE        CLOUDY    93  36  13 E6        30.00F

$$



USA.gov is the U.S. government's official web portal to all federal, state and local government web resources and services.